Location: Marcé
(47.5801°N, 0.3280°W)
Time: 18:57:58
(UTC+01:00)

Vanguard 2 Rocket - Visible Passes

Search period start: 06 December 2021 00:00
Search period end: 16 December 2021 00:00
Orbit: 555 x 3324 km, 32.9° (Epoch: 06 December)

Date Brightness Start Highest point End Pass type
(mag) Time Alt. Az. Time Alt. Az. Time Alt. Az.
06 Dec 8.8 18:56:19 10° SSW 19:00:51 23° SSE 19:05:57 13° ESE visible
06 Dec 9.0 21:07:00 10° WSW 21:11:44 28° SSW 21:11:44 28° SSW visible
07 Dec 8.9 17:58:28 10° S 18:01:37 16° SSE 18:05:34 10° ESE visible
07 Dec 8.8 20:08:13 10° SW 20:13:41 28° S 20:15:17 26° SSE visible
07 Dec 9.9 22:20:09 10° WSW 22:21:04 13° WSW 22:21:04 13° WSW visible
08 Dec 8.7 19:09:40 10° SW 19:14:09 23° SSE 19:18:52 14° SE visible
08 Dec 9.2 21:20:56 10° WSW 21:24:39 23° SSW 21:24:39 23° SSW visible
09 Dec 8.7 18:11:26 10° SSW 18:14:50 18° SSE 18:19:17 10° ESE visible
09 Dec 8.9 20:22:00 10° SW 20:27:07 25° S 20:28:16 24° S visible
10 Dec 8.7 19:23:16 10° SW 19:27:33 22° S 19:31:56 14° SE visible
10 Dec 9.5 21:35:16 10° SW 21:37:44 17° SW 21:37:44 17° SW visible
11 Dec 8.7 18:24:46 10° SSW 18:28:11 18° S 18:32:37 10° SE visible
11 Dec 9.1 20:36:05 10° SW 20:40:37 20° S 20:41:27 19° S visible
12 Dec 8.9 19:37:10 10° SW 19:41:01 19° S 19:45:14 12° SE visible
12 Dec 9.8 21:50:38 10° SW 21:51:03 11° SW 21:51:03 11° SW visible
13 Dec 8.8 18:38:27 10° SW 18:41:36 17° S 18:45:36 10° SE visible
13 Dec 9.4 20:50:52 10° SW 20:54:09 14° SSW 20:54:54 14° S visible
14 Dec 9.2 19:51:35 10° SW 19:54:32 14° S 19:58:10 10° SSE visible
15 Dec 9.0 18:52:35 10° SW 18:55:05 14° S 18:58:04 10° SSE visible
